Mosby, MO

11:21 PM CST on December 15, 2019 (GMT -0600)
Clay County Regional

Weather History for KGPH - October, 2019

Change the Weather History Date:

Tuesday, October 8, 2019

  Actual Average (WUND) Record (WUND)
Temperature  
Mean Temperature 54 °F -  
Max Temperature 68 °F - - (-1)
Min Temperature 41 °F - - (-1)
Degree Days  
Heating Degree Days 10    
Growing Degree Days 4 (Base 50)    
Moisture  
Dew Point -15 °F    
Average Humidity 8    
Maximum Humidity 13    
Minimum Humidity 4    
Precipitation  
Precipitation 0.00 in - - ()
Sea Level Pressure  
Sea Level Pressure 30.11 in    
Wind  
Wind Speed 1 mph ()    
Max Wind Speed 14 mph    
Max Gust Speed 20 mph    
Visibility 9.9 miles    
Events      
Averages and records for this station are not official NWS values.
T = Trace of Precipitation, MM = Missing Value Source: Averaged Metar Reports

Daily Weather History Graph

Daily Weather History Graph

Search for Another Location

Airport or City:

Astronomy

Oct. 08, 2019 Rise Set
Actual Time 7:19 AM CDT 6:49 PM CDT
Civil Twilight 6:53 AM CDT 7:15 PM CDT
Nautical Twilight 6:21 AM CDT 7:46 PM CDT
Astronomical Twilight 5:50 AM CDT 8:18 PM CDT
Moon 4:46 PM CDT (10/8) 2:12 AM CDT (10/8)
Length of Visible Light 12h 22m
Length of Day
11h 29m
Waxing Gibbous, 78% of the Moon is Illuminated
Oct 8
Waxing Gibbous
Oct 13
Full
Oct 21
Last Quarter
Oct 27
New
Nov 4
First Quarter

Hourly Weather History & Observations

Time (CDT) Temp. Dew Point Humidity Pressure Visibility Wind Dir Wind Speed Gust Speed Precip Events Conditions
12:15 AM 46.4 °F -9.4 °F 9% 30.20 in 7.0 mi Calm Calm - N/A   Clear
12:35 AM 46.4 °F -9.4 °F 9% 30.19 in 4.0 mi Calm Calm - N/A   Haze
12:55 AM 44.6 °F -9.4 °F 10% 30.19 in 10.0 mi Calm Calm - N/A   Clear
1:15 AM 44.6 °F -9.4 °F 10% 30.19 in 10.0 mi Calm Calm - N/A   Clear
1:35 AM 44.6 °F -9.4 °F 10% 30.19 in 10.0 mi Calm Calm - N/A   Clear
1:55 AM 44.6 °F -9.4 °F 10% 30.19 in 10.0 mi Calm Calm - N/A   Clear
2:15 AM 44.6 °F -9.4 °F 10% 30.19 in 10.0 mi Calm Calm - N/A   Clear
2:35 AM 42.8 °F -13.0 °F 9% 30.19 in 10.0 mi Calm Calm - N/A   Clear
2:55 AM 42.8 °F -11.2 °F 10% 30.19 in 10.0 mi Calm Calm - N/A   Clear
3:15 AM 42.8 °F -9.4 °F 11% 30.19 in 10.0 mi Calm Calm - N/A   Clear
3:55 AM 42.8 °F -13.0 °F 9% 30.18 in 10.0 mi Calm Calm - N/A   Clear
4:15 AM 42.8 °F -14.8 °F 8% 30.18 in 10.0 mi Calm Calm - N/A   Clear
4:35 AM 42.8 °F -13.0 °F 9% 30.18 in 10.0 mi Calm Calm - N/A   Clear
4:55 AM 42.8 °F -13.0 °F 9% 30.18 in 10.0 mi Calm Calm - N/A   Clear
5:15 AM 42.8 °F -13.0 °F 9% 30.18 in 10.0 mi Calm Calm - N/A   Clear
5:35 AM 41.0 °F -9.4 °F 12% 30.18 in 10.0 mi Calm Calm - N/A   Clear
6:15 AM 41.0 °F -13.0 °F 10% 30.18 in 10.0 mi Calm Calm - N/A   Clear
6:35 AM 41.0 °F -11.2 °F 11% 30.18 in 10.0 mi Calm Calm - N/A   Clear
6:55 AM 41.0 °F -13.0 °F 10% 30.18 in 10.0 mi Calm Calm - N/A   Clear
7:15 AM 41.0 °F -13.0 °F 10% 30.18 in 10.0 mi Calm Calm - N/A   Clear
7:35 AM 41.0 °F -11.2 °F 11% 30.18 in 10.0 mi Calm Calm - N/A   Clear
7:55 AM 41.0 °F -13.0 °F 10% 30.18 in 10.0 mi Calm Calm - N/A   Clear
8:15 AM 41.0 °F -11.2 °F 11% 30.17 in 10.0 mi Calm Calm - N/A   Clear
8:35 AM 41.0 °F -7.6 °F 13% 30.17 in 10.0 mi Calm Calm - N/A   Clear
8:55 AM 42.8 °F -9.4 °F 11% 30.17 in 10.0 mi Calm Calm - N/A   Clear
9:15 AM 46.4 °F -7.6 °F 10% 30.17 in 10.0 mi Calm Calm - N/A   Clear
9:35 AM 50.0 °F -5.8 °F 10% 30.17 in 10.0 mi Calm Calm - N/A   Clear
9:55 AM 53.6 °F -5.8 °F 9% 30.17 in 10.0 mi Calm Calm - N/A   Clear
10:15 AM 55.4 °F -7.6 °F 7% 30.18 in 10.0 mi Calm Calm - N/A   Clear
10:35 AM 59.0 °F -14.8 °F 5% 30.17 in 10.0 mi SSE 3.5 mph - N/A   Clear
10:55 AM 59.0 °F -13.0 °F 5% 30.17 in 10.0 mi Calm Calm - N/A   Clear
11:15 AM 62.6 °F -20.2 °F 4% 30.16 in 10.0 mi Calm Calm - N/A   Clear
11:35 AM 64.4 °F -20.2 °F 4% 30.15 in 10.0 mi South 8.1 mph - N/A   Clear
11:55 AM 64.4 °F -27.4 °F 4% 30.15 in 10.0 mi SSE 9.2 mph - N/A   Clear
12:15 PM 66.2 °F -31.0 °F 4% 30.14 in 10.0 mi SSW 10.4 mph 19.6 mph N/A   Clear
1:15 PM 68.0 °F -31.0 °F 4% 30.12 in 10.0 mi South 11.5 mph 17.3 mph N/A   Clear
1:55 PM - - N/A% 30.10 in 10.0 mi SSW 11.5 mph 17.3 mph N/A   Clear
2:35 PM - - N/A% 30.07 in 10.0 mi SSW 5.8 mph - N/A   Clear
2:55 PM - - N/A% 30.07 in 10.0 mi SSE 11.5 mph - N/A   Clear
3:15 PM - - N/A% 30.05 in 10.0 mi South 8.1 mph - N/A   Clear
3:35 PM - - N/A% 30.05 in 10.0 mi SSE 13.8 mph - N/A   Unknown
4:35 PM - - N/A% 30.03 in 10.0 mi South 10.4 mph 16.1 mph N/A   Clear
5:15 PM - - N/A% 30.02 in 10.0 mi South 5.8 mph - N/A   Clear
5:35 PM - - N/A% 30.02 in 10.0 mi South 10.4 mph - N/A   Clear
5:55 PM - - N/A% 30.02 in 10.0 mi South 5.8 mph - N/A   Clear
6:15 PM - - N/A% 30.02 in 10.0 mi South 8.1 mph - N/A   Clear
6:35 PM - - N/A% 30.01 in 10.0 mi SSE 4.6 mph - N/A   Clear
6:55 PM 68.0 °F -31.0 °F 4% 30.01 in 10.0 mi SSE 4.6 mph - N/A   Clear
7:35 PM 64.4 °F -27.4 °F 4% 30.01 in 10.0 mi Calm Calm - N/A   Clear
7:55 PM 62.6 °F -25.6 °F 4% 30.01 in 10.0 mi Calm Calm - N/A   Clear
8:15 PM 62.6 °F -22.0 °F 4% 30.01 in 10.0 mi Calm Calm - N/A   Clear
8:35 PM 60.8 °F -20.2 °F 4% 30.01 in 10.0 mi Calm Calm - N/A   Clear
8:55 PM 59.0 °F -22.0 °F 4% 30.01 in 10.0 mi Calm Calm - N/A   Clear
9:15 PM 59.0 °F -18.4 °F 4% 30.01 in 10.0 mi Calm Calm - N/A   Unknown
9:35 PM 59.0 °F -16.6 °F 4% 30.01 in 10.0 mi Calm Calm - N/A   Clear
9:55 PM 57.2 °F -16.6 °F 4% 30.01 in 10.0 mi Calm Calm - N/A   Clear
10:15 PM 55.4 °F -16.6 °F 5% 30.01 in 10.0 mi Calm Calm - N/A   Clear
10:35 PM 55.4 °F -14.8 °F 5% 30.01 in 10.0 mi Calm Calm - N/A   Clear
10:55 PM 55.4 °F -16.6 °F 5% 30.01 in 10.0 mi Calm Calm - N/A   Clear
11:15 PM 55.4 °F -16.6 °F 5% 30.02 in 10.0 mi Calm Calm - N/A   Clear
11:35 PM 55.4 °F -16.6 °F 5% 30.02 in 10.0 mi Calm Calm - N/A   Clear